TimeCDT,TemperatureF,Dew PointF,Humidity,Sea Level PressureIn,VisibilityMPH,Wind Direction,Wind SpeedMPH,Gust SpeedMPH,PrecipitationIn,Events,Conditions,WindDirDegrees,DateUTC
12:53 AM,42.1,39.9,92,30.07,-9999.0,North,3.5,-,N/A,,Clear,10,2013-10-20 05:53:00
1:53 AM,41.0,39.0,93,30.07,-9999.0,North,4.6,-,N/A,,Clear,360,2013-10-20 06:53:00
2:53 AM,42.1,39.9,92,30.07,-9999.0,North,3.5,-,N/A,,Clear,10,2013-10-20 07:53:00
3:53 AM,39.0,37.9,96,30.08,-9999.0,Calm,Calm,-,N/A,,Clear,0,2013-10-20 08:53:00
4:53 AM,36.0,35.1,97,30.09,-9999.0,Calm,Calm,-,N/A,,Clear,0,2013-10-20 09:53:00
5:53 AM,36.0,35.1,97,30.10,-9999.0,NNE,3.5,-,N/A,,Clear,20,2013-10-20 10:53:00
6:53 AM,36.0,35.1,97,30.11,-9999.0,NNE,6.9,-,N/A,,Clear,20,2013-10-20 11:53:00
7:53 AM,42.1,39.9,92,30.11,-9999.0,Calm,Calm,-,N/A,,Clear,0,2013-10-20 12:53:00
8:53 AM,48.0,43.0,83,30.12,9.0,Calm,Calm,-,N/A,,Clear,0,2013-10-20 13:53:00
9:53 AM,52.0,42.1,69,30.13,10.0,ENE,4.6,-,N/A,,Clear,70,2013-10-20 14:53:00
10:53 AM,57.0,42.1,57,30.12,10.0,Calm,Calm,-,N/A,,Clear,0,2013-10-20 15:53:00
11:53 AM,61.0,36.0,39,30.11,10.0,Calm,Calm,-,N/A,,Clear,0,2013-10-20 16:53:00
12:53 PM,61.0,36.0,39,30.08,10.0,Calm,Calm,-,N/A,,Clear,0,2013-10-20 17:53:00
1:53 PM,66.0,32.0,28,30.05,10.0,Variable,5.8,-,N/A,,Clear,0,2013-10-20 18:53:00
2:53 PM,64.9,37.9,37,30.04,10.0,WNW,6.9,-,N/A,,Clear,290,2013-10-20 19:53:00
3:53 PM,64.9,37.9,37,30.04,10.0,West,5.8,-,N/A,,Clear,280,2013-10-20 20:53:00
4:53 PM,64.0,37.9,38,30.04,10.0,West,3.5,-,N/A,,Clear,260,2013-10-20 21:53:00
5:53 PM,59.0,44.1,58,30.04,10.0,Calm,Calm,-,N/A,,Clear,0,2013-10-20 22:53:00
6:53 PM,51.1,44.1,77,30.05,10.0,Calm,Calm,-,N/A,,Clear,0,2013-10-20 23:53:00
7:53 PM,48.0,43.0,83,30.06,10.0,East,3.5,-,N/A,,Clear,100,2013-10-21 00:53:00
8:53 PM,45.0,43.0,93,30.06,10.0,Calm,Calm,-,N/A,,Clear,0,2013-10-21 01:53:00
9:53 PM,44.1,42.1,93,30.06,10.0,Calm,Calm,-,N/A,,Clear,0,2013-10-21 02:53:00
10:53 PM,43.0,41.0,93,30.06,-9999.0,Calm,Calm,-,0.01,,Clear,0,2013-10-21 03:53:00
11:53 PM,41.0,39.9,96,30.06,-9999.0,Calm,Calm,-,N/A,,Clear,0,2013-10-21 04:53:00